Location: Drawsko Pomorskie
(53.5317°N, 15.8111°E)
Time: 17:08:38
(UTC+01:00)

Envisat - Visible Passes

Search period start: 18 March 2019 00:00
Search period end: 28 March 2019 00:00
Orbit: 764 x 766 km, 98.2° (Epoch: 18 March)

Date Brightness Start Highest point End Pass type
(mag) Time Alt. Az. Time Alt. Az. Time Alt. Az.
18 Mar 4.0 18:50:11 10° S 18:55:07 51° W 19:00:07 10° NNW visible
19 Mar 5.9 19:54:39 10° SW 19:58:00 17° W 20:01:23 10° NW visible
20 Mar 4.9 19:16:17 10° SSW 19:20:51 33° W 19:25:25 10° NNW visible
21 Mar 3.7 18:38:50 10° S 18:43:52 62° WSW 18:48:56 10° NNW visible
21 Mar 6.3 20:22:47 10° W 20:23:58 11° W 20:25:09 10° WNW visible
22 Mar 5.7 19:42:50 10° SW 19:46:39 21° W 19:50:29 10° NW visible
23 Mar 4.6 19:04:47 10° SSW 19:09:32 39° W 19:14:19 10° NNW visible
24 Mar 6.0 20:10:09 10° WSW 20:12:33 13° W 20:14:59 10° NW visible
25 Mar 5.4 19:31:08 10° SSW 19:35:18 25° W 19:39:30 10° NW visible
26 Mar 4.2 18:53:21 10° S 18:58:15 47° W 19:03:11 10° NNW visible
27 Mar 5.9 19:58:03 10° SW 20:01:10 16° W 20:04:19 10° NW visible
